[[{"header":{"parameterUnit":"m.s-1","parameterCategory":1,"la1":30.2991,"la2":30.254,"lo1":-89.0895,"lo2":-89.0444,"dy":0.0017,"dx":0.0017,"nx":28,"ny":28,"refTime":"2024-02-02T09:00:00:Z","depth":0,"parameterNumber":2,"parameterNumberName":"U-component_of_WINDS"},"data":[0,0,0,0,0,0,0,0,0,0,0,0,0,0,0,0,0,0,0,0,0,0,0,0,0,0,0,0,0,0,0,0,0,0,0,0,0,0,0,0,0,0,0,0,0,0,0,0,0,0,0,0,0,0,0,0,0,0,-0.9026,-0.9026,0,-0.9034,-0.9034,-0.9034,-0.9003,-0.9002,-0.9001,-0.9,-0.9011,-0.9013,-0.9014,0,0,0,0,0,0,0,0,0,0,0,0,0,-0.8988,-0.8989,-0.9026,-0.9026,-0.9026,-0.9034,-0.9034,-0.9034,-0.9003,-0.9002,-0.9001,-0.9,-0.9011,-0.9012,-0.9014,0,0,0,0,0,0,0,0,0,0,0,0,0,-0.9001,-0.8989,-0.9026,-0.9011,-0.901,-0.9034,-0.9034,-0.9034,-0.9003,-0.9002,-0.9,-0.8999,-0.9011,-0.9012,-0.9014,-0.9053,0,0,-0.9019,-0.902,0,0,0,0,0,0,0,0,-0.9,-0.9002,-0.9013,-0.9012,-0.9011,-0.9016,-0.9024,-0.904,-0.9003,-0.9006,-0.9,-0.8998,-0.9014,-0.9016,-0.902,-0.9053,-0.9054,-0.902,-0.9021,-0.9021,-0.9022,0,0,0,0,0,0,0,-0.8999,-0.9002,-0.9029,-0.9014,-0.9012,-0.9006,-0.9006,-0.9027,-0.9018,-0.9006,-0.9003,-0.9004,-0.9013,-0.9019,-0.902,-0.9054,-0.9019,-0.9021,-0.9022,-0.9023,-0.912,-0.9121,0,0,0,0,0,0,-0.9,-0.9001,-0.9029,-0.9029,-0.9002,-0.9008,-0.9008,-0.9016,-0.9018,-0.9016,-0.9006,-0.9003,-0.9016,-0.9018,-0.9021,-0.9067,-0.9021,-0.9023,-0.9024,-0.9118,-0.912,-0.9122,0,0,0,0,0,0,-0.8999,-0.9003,-0.9029,-0.9015,-0.9017,-0.901,-0.9019,-0.9017,-0.9022,-0.9018,-0.9016,-0.9013,-0.9015,-0.9018,-0.9045,-0.9067,-0.9024,-0.9025,-0.9117,-0.9119,-0.9121,-0.9159,0,0,0,0,0,0,-0.8998,-0.9002,-0.9016,-0.9015,-0.9018,-0.9052,-0.902,-0.9018,-0.9024,-0.9021,-0.9024,-0.9023,-0.9014,-0.9042,-0.9047,-0.9068,-0.9027,-0.9115,-0.9118,-0.912,-0.9156,-0.9162,-0.9168,0,0,0,0,0,-0.8997,-0.9027,-0.9017,-0.9021,-0.9035,-0.9053,-0.9055,-0.9044,-0.9026,-0.9041,-0.9038,-0.9023,-0.9063,-0.9045,-0.905,-0.9072,-0.9113,-0.9117,-0.912,-0.9153,-0.9161,-0.9167,0,0,0,0,0,0,-0.9033,-0.9027,-0.9016,-0.9046,-0.905,-0.9048,-0.9066,-0.9052,-0.9062,-0.9059,-0.9045,-0.9046,-0.9076,-0.9077,-0.9057,-0.911,-0.9085,-0.909,-0.9109,-0.9116,-0.9122,-0.9122,-0.9028,0,0,0,0,0,-0.9044,-0.9058,-0.9052,-0.908,-0.9082,-0.9074,-0.9081,-0.9072,-0.9076,-0.9078,-0.9077,-0.9083,-0.9097,-0.9106,-0.9119,-0.9155,-0.9156,-0.9173,-0.9179,-0.9184,-0.9188,-0.9208,-0.9216,-0.9133,-0.9133,-0.9133,0,0,-0.9068,-0.9066,-0.9076,-0.9087,-0.9089,-0.9105,-0.9076,-0.9093,-0.9105,-0.9081,-0.9106,-0.9106,-0.9111,-0.9143,-0.9157,-0.9145,-0.9211,-0.9188,-0.9192,-0.9194,-0.9213,-0.9221,-0.9228,-0.9136,-0.9135,-0.9135,0,0,-0.9119,-0.9119,-0.9142,-0.9145,-0.9148,-0.9141,-0.9147,-0.9147,-0.9145,-0.917,-0.9152,-0.9167,-0.9191,-0.9195,-0.9201,-0.9254,-0.9241,-0.9259,-0.9291,-0.931,-0.9317,-0.9323,-0.9343,-0.935,-0.9263,-0.9263,-0.9263,0,-0.9149,-0.9171,-0.9156,-0.9175,-0.9181,-0.9158,-0.9183,-0.9186,-0.9194,-0.9199,-0.9184,-0.9214,-0.9216,-0.9249,-0.9262,-0.9267,-0.9274,-0.9259,-0.9317,-0.9322,-0.9328,-0.9347,-0.9354,-0.9265,-0.9265,-0.9265,-0.9264,0,-0.9208,-0.9223,-0.9242,-0.9248,-0.9256,-0.9278,-0.9268,-0.9278,-0.9268,-0.9263,-0.9289,-0.9291,-0.9304,-0.931,-0.9301,-0.9343,-0.9335,-0.9319,-0.9294,-0.9338,-0.9356,-0.9363,-0.9268,-0.9268,-0.9267,-0.9266,0,0,-0.9283,-0.9281,-0.9288,-0.9291,-0.9292,-0.9304,-0.9325,-0.9336,-0.9346,-0.9352,-0.937,-0.939,-0.9375,-0.9382,-0.9373,-0.939,-0.9433,-0.9372,-0.9372,-0.9384,-0.948,-0.9493,-0.9501,-0.9424,-0.9425,-0.9426,-0.948,0,-0.9335,-0.9369,-0.9356,-0.9392,-0.9407,-0.9385,-0.9404,-0.9407,-0.9404,-0.9417,-0.9413,-0.9429,-0.9407,-0.9411,-0.9427,-0.9425,-0.9453,-0.942,-0.9442,-0.9443,-0.9442,-0.951,-0.9524,-0.9574,-0.9486,-0.9488,-0.9488,0,-0.9399,-0.9406,-0.9444,-0.9442,-0.9448,-0.9465,-0.9474,-0.9486,-0.949,-0.9486,-0.9493,-0.9481,-0.9502,-0.9476,-0.9507,-0.9485,-0.9493,-0.9494,-0.9495,-0.9498,-0.9469,-0.9516,-0.959,-0.9598,-0.9499,-0.9498,-0.9497,0,-0.9452,-0.9471,-0.9496,-0.9499,-0.9498,-0.951,-0.951,-0.9512,-0.952,-0.9529,-0.9534,-0.9545,-0.9552,-0.9561,-0.9553,-0.9534,-0.9585,-0.9558,-0.9584,-0.9584,-0.9596,-0.9596,-0.9674,-0.96,-0.96,-0.96,-0.9599,0,-0.9511,-0.9535,-0.9519,-0.9535,-0.9561,-0.9546,-0.9573,-0.9571,-0.9573,-0.9589,-0.9571,-0.9586,-0.9573,-0.9588,-0.9581,-0.9608,-0.9611,-0.9609,-0.9608,-0.9612,-0.9612,-0.9618,-0.9615,-0.9602,-0.9601,-0.9601,-0.96,0,-0.9575,-0.9565,-0.9591,-0.9587,-0.9587,-0.9607,-0.9604,-0.9619,-0.9614,-0.9634,-0.9638,-0.963,-0.9646,-0.9638,-0.9655,-0.9651,-0.9686,-0.9678,-0.9684,-0.9683,-0.9709,-0.9707,-0.9795,-0.9806,-0.9723,-0.9724,-0.9725,0,-0.9615,-0.9632,-0.963,-0.9638,-0.964,-0.9654,-0.9661,-0.9647,-0.9656,-0.9661,-0.9676,-0.969,-0.9701,-0.9728,-0.9725,-0.9738,-0.9731,-0.9761,-0.9734,-0.9737,-0.9733,-0.9733,-0.9735,-0.9767,-0.9768,-0.9769,-0.977,0,-0.9686,-0.968,-0.969,-0.9699,-0.9708,-0.9715,-0.972,-0.9728,-0.9715,-0.9726,-0.9741,-0.9749,-0.9766,-0.9781,-0.9792,-0.9794,-0.978,-0.9778,-0.9785,-0.979,-0.9793,-0.9793,-0.97,-0.9777,-0.9776,-0.9775,-0.9775,-0.9775,-0.9739,-0.9754,-0.9755,-0.9767,-0.9769,-0.9775,-0.9788,-0.9784,-0.9797,-0.9808,-0.98,-0.9818,-0.9822,-0.9836,-0.9839,-0.9854,-0.9843,-0.9852,-0.9855,-0.9858,-0.9862,-0.9789,-0.9856,-0.9856,-0.9856,-0.9856,-0.9855,0,-0.981,-0.9809,-0.9821,-0.9828,-0.9838,-0.9823,-0.9828,-0.9838,-0.9854,-0.9858,-0.9868,-0.9886,-0.99,-0.9898,-0.9911,-0.9924,-0.9918,-0.9928,-0.9928,-0.9928,-0.9871,-0.9864,-0.9932,-0.9932,-0.9932,-0.9932,-0.9932,-0.9932,-0.9849,-0.9873,-0.9867,-0.9893,-0.9892,-0.9909,-0.9913,-0.9918,-0.9921,-0.9942,-0.9953,-0.9951,-0.9953,-0.9966,-0.9978,-0.9977,-0.9984,-0.9996,-0.9993,-0.994,-0.9932,-0.9925,-0.9919,-0.9997,-0.9997,-1.0049,-1.005,-1.005]},{"header":{"parameterUnit":"m.s-1","parameterCategory":1,"la1":30.2991,"la2":30.254,"lo1":-89.0895,"lo2":-89.0444,"dy":0.0017,"dx":0.0017,"nx":28,"ny":28,"refTime":"2024-02-02T09:00:00:Z","depth":0,"parameterNumber":3,"parameterNumberName":"V-component_of_WINDS"},"data":[0,0,0,0,0,0,0,0,0,0,0,0,0,0,0,0,0,0,0,0,0,0,0,0,0,0,0,0,0,0,0,0,0,0,0,0,0,0,0,0,0,0,0,0,0,0,0,0,0,0,0,0,0,0,0,0,0,0,1.4404,1.4402,0,1.4275,1.4274,1.4272,1.4211,1.4211,1.4211,1.4211,1.4075,1.4072,1.4068,0,0,0,0,0,0,0,0,0,0,0,0,0,1.4591,1.4588,1.4404,1.4402,1.44,1.4276,1.4274,1.4272,1.4211,1.4211,1.4211,1.4211,1.4077,1.4072,1.4068,0,0,0,0,0,0,0,0,0,0,0,0,0,1.4491,1.4587,1.4404,1.4355,1.4349,1.4276,1.4274,1.4272,1.4211,1.4211,1.4211,1.4211,1.4078,1.4073,1.4067,1.4031,0,0,1.405,1.4048,0,0,0,0,0,0,0,0,1.4496,1.4484,1.4364,1.4358,1.4352,1.4259,1.429,1.4191,1.4211,1.4263,1.4211,1.4211,1.4136,1.4126,1.4101,1.4025,1.4019,1.405,1.4047,1.4044,1.4043,0,0,0,0,0,0,0,1.4503,1.4489,1.4353,1.4362,1.4355,1.4338,1.4324,1.4271,1.4201,1.4259,1.4254,1.424,1.4133,1.4107,1.4098,1.4017,1.405,1.4045,1.4042,1.404,1.3903,1.3903,0,0,0,0,0,0,1.4519,1.4495,1.4357,1.4349,1.4426,1.4335,1.4319,1.4289,1.4201,1.4188,1.424,1.4238,1.4116,1.4104,1.4093,1.4044,1.4044,1.4039,1.4036,1.3904,1.3903,1.3903,0,0,0,0,0,0,1.4523,1.4507,1.4362,1.4421,1.4401,1.4331,1.4298,1.4286,1.426,1.4187,1.4174,1.4227,1.4116,1.4101,1.4047,1.4039,1.4037,1.4032,1.3904,1.3903,1.3903,1.3948,0,0,0,0,0,0,1.4529,1.4509,1.4496,1.4421,1.4398,1.432,1.4298,1.4284,1.4252,1.4247,1.4171,1.4158,1.4115,1.4056,1.4042,1.4031,1.4027,1.3904,1.3904,1.3903,1.3947,1.3949,1.3951,0,0,0,0,0,1.4536,1.4513,1.4496,1.4479,1.438,1.432,1.4306,1.4258,1.4251,1.4236,1.4189,1.4161,1.4042,1.4051,1.4034,1.4022,1.3905,1.3904,1.3903,1.3946,1.3948,1.3951,0,0,0,0,0,0,1.4587,1.4502,1.4482,1.4434,1.4385,1.431,1.429,1.4262,1.4213,1.421,1.4151,1.4134,1.4086,1.4048,1.406,1.3982,1.3971,1.3967,1.4008,1.401,1.4012,1.4022,1.4023,0,0,0,0,0,1.4593,1.4553,1.448,1.4445,1.4421,1.436,1.4331,1.4299,1.4244,1.4223,1.4171,1.4118,1.4069,1.4038,1.3988,1.3941,1.3923,1.3924,1.3926,1.3928,1.3925,1.3897,1.3896,1.3901,1.3901,1.3901,0,0,1.4604,1.4553,1.4531,1.4454,1.4411,1.4369,1.4342,1.4299,1.4266,1.4215,1.4162,1.4123,1.4059,1.4009,1.3984,1.3976,1.392,1.3928,1.393,1.3925,1.3896,1.3896,1.3895,1.39,1.39,1.39,0,0,1.4604,1.4561,1.4527,1.4486,1.4423,1.4382,1.4374,1.4302,1.4275,1.4221,1.4181,1.4141,1.4058,1.4014,1.3981,1.3964,1.3935,1.3949,1.3959,1.3932,1.3932,1.3931,1.3924,1.3922,1.3947,1.3947,1.3947,0,1.4625,1.4562,1.4513,1.4471,1.4438,1.4391,1.4355,1.4317,1.4241,1.4218,1.4211,1.4105,1.4059,1.3997,1.3993,1.3968,1.3956,1.3957,1.3936,1.3935,1.3934,1.3926,1.3924,1.3949,1.3949,1.3948,1.3948,0,1.4591,1.4547,1.4527,1.4456,1.442,1.4382,1.4326,1.4295,1.4265,1.4225,1.417,1.4113,1.4052,1.4034,1.4004,1.3968,1.3965,1.3948,1.3935,1.3936,1.3928,1.3925,1.3952,1.3951,1.395,1.395,0,0,1.4618,1.4521,1.4515,1.4482,1.4409,1.4373,1.4332,1.4273,1.4247,1.4196,1.4159,1.409,1.4073,1.4036,1.4,1.3977,1.3965,1.3962,1.3959,1.3964,1.3921,1.3934,1.3931,1.3946,1.3946,1.3945,1.3926,0,1.4607,1.4533,1.4488,1.4431,1.439,1.4345,1.4309,1.4259,1.4221,1.4178,1.4134,1.4086,1.4069,1.4046,1.402,1.3972,1.3956,1.3973,1.391,1.3908,1.3927,1.3927,1.3941,1.3925,1.3922,1.3922,1.3921,0,1.4584,1.4535,1.4476,1.4407,1.4388,1.4356,1.4298,1.4259,1.4201,1.4174,1.4133,1.4098,1.4051,1.4042,1.3976,1.3989,1.396,1.3933,1.3931,1.3922,1.3915,1.3918,1.3919,1.3917,1.3916,1.3916,1.3917,0,1.4609,1.4528,1.4482,1.4455,1.4374,1.4353,1.4318,1.4261,1.4228,1.4177,1.4154,1.4098,1.4067,1.4023,1.3972,1.3971,1.3911,1.3898,1.3886,1.3887,1.3875,1.3876,1.3871,1.3858,1.3858,1.3858,1.3858,0,1.4601,1.4566,1.4492,1.4464,1.4423,1.437,1.433,1.4291,1.4241,1.4202,1.416,1.4124,1.406,1.4016,1.3976,1.3927,1.3913,1.3889,1.3879,1.3892,1.3896,1.3872,1.3872,1.3857,1.3857,1.3857,1.3858,0,1.4622,1.4572,1.4518,1.4446,1.4427,1.44,1.4337,1.4307,1.4266,1.4218,1.4204,1.4139,1.4086,1.4031,1.3958,1.3931,1.3883,1.3869,1.3903,1.3897,1.3887,1.3888,1.3866,1.3859,1.3852,1.3853,1.3853,0,1.4619,1.4592,1.4517,1.4489,1.4456,1.4411,1.4378,1.4325,1.4291,1.4224,1.4201,1.4145,1.4097,1.4013,1.3958,1.3902,1.3886,1.3882,1.3877,1.3891,1.3884,1.3886,1.3883,1.3883,1.3884,1.3884,1.3884,0,1.462,1.4597,1.4552,1.4497,1.4459,1.4414,1.4366,1.4345,1.4282,1.4247,1.4192,1.4155,1.4081,1.4025,1.3962,1.3924,1.3893,1.3886,1.388,1.3894,1.3914,1.3902,1.3907,1.3887,1.3887,1.3886,1.3886,1.3886,1.4629,1.4602,1.4545,1.4496,1.4455,1.4412,1.438,1.4335,1.429,1.4226,1.4197,1.4142,1.4084,1.3997,1.3959,1.3914,1.3906,1.3897,1.3895,1.3893,1.3896,1.3922,1.3902,1.3902,1.3902,1.3902,1.3902,0,1.4627,1.4589,1.4544,1.448,1.444,1.4417,1.4363,1.4331,1.4283,1.4233,1.4187,1.4123,1.4069,1.401,1.3951,1.3927,1.3911,1.3913,1.3914,1.3905,1.3908,1.3918,1.3927,1.3927,1.3927,1.3927,1.3927,1.3927,1.4621,1.4574,1.4544,1.4476,1.4437,1.4384,1.4355,1.4314,1.4273,1.4205,1.416,1.4123,1.4069,1.4006,1.3954,1.3938,1.3918,1.3924,1.3904,1.3907,1.3905,1.3903,1.3913,1.392,1.392,1.3905,1.3905,1.3904]}]]